CZ-6A DEB

Satellite information

Favourite Embed

Satellite Type and Status

DEBRISIN ORBIT

Key statistics

Satellite CZ-6A DEB at a glance.

Uptime

1129

Days in orbit

Revolutions

≈ 14.2

Per day

Orbit

SSO

Sun Synchronous Orbit

Inclination

98.8

Latest

Satellite identification and parameters

Extended collection of information and parameters for CZ-6A DEB.

Object identification

Identified? True

Debris? True

Object name: CZ-6A DEB

International designator: 2022-151EF

Object number (NORAD): 54407

Object ID (CCSDS): 54407

Country: PEOPLES REPUBLIC OF CHINA (PRC)

Current information (Y/N): Y

RCS size: SMALL

Orbital parameters

Period: 101.348 minutes

Inclination: 98.7717 deg

SMA: 7200.624 km

Apoapsis: 854.035 km

Periapsis: 790.943 km

RAAN: 351.4407 deg

Eccentricy: 0.00438103

Argument of periapsis: 145.4047 deg

Mean anomaly: 214.9994 deg

Mean motion: 14.2084783 rev/day

Mean motion (dot): 0.00002712 rev/day2

B* drag term: 0.0012622495 1/REarth

Two-line elements (TLE)

Creation date: Dec. 14, 2025, 3:07 a.m.

Reference frame: TEME

Reference center: EARTH

Epoch: Dec. 13, 2025, 12:55 p.m. UTC

TLE line 0: 0 CZ-6A DEB

TLE line 1: 1 54407U 22151EF 25347.53828812 .00002712 00000-0 12622-2 0 9996

TLE line 2: 2 54407 98.7717 351.4407 0043810 145.4047 214.9994 14.20847830159321

Live tracking on map

Real-time ground track for satellite CZ-6A DEB.

In-orbit conjunctions

A list of the most updated potential collisions computed for object CZ-6A DEB.

Target Orbit TCA Probability of collision Miss distance Type
NOAA 16 DEB SSO 2025-07-24 12:15:38 0.0005187991 175.0 (m) DEBRIS
COSMOS 1275 DEB LEO 2025-02-19 15:46:14 0.0001014118 433.0 (m) DEBRIS
FENGYUN 1C DEB SSO 2024-09-25 01:50:57 0.0004313639 668.0 (m) DEBRIS

Associated space launch

Chinese satellite reported for atmospheric/ocean/environmental/spatial parameter research purposes, details TBD.

CZ-6A DEB was lifted into orbit during the mission ‘Long March 6A | Yunhai 3’, on board a Long March 6A space rocket.

The launch took place on Nov. 11, 2022, 10:52 p.m. from Launch Complex 9A.

For more information about the launch, click the button.

Launch to space Long March 6A | Yunhai 3
Long March 6A | Yunhai 3

Agency: N/A

Status: Launch Successful

Launch date: Nov. 11, 2022, 10:52 p.m. UTC

Rocket: Long March 6A

Launch pad: Launch Complex 9A

Location: Taiyuan Satellite Launch Center, People's Republic of China

...

Latest news about this satellite

There are no fresh news available about this satellite. Check back as we update our databases every day.


Newsletter sign-up

Weekly statistics, charts and insights to help you stay on top of the space industry.